sat.trackr.live / text

‹ back to catalog

STARLINK-32678

NORAD 62309 · 2024-239J

PAYLOAD ACTIVE UNKNOWN

§ Identity

Operator
Country
US
Launch date
2024-12-13
Launch site
AFWTR
Launch vehicle
Mass (kg)
RCS (m²)

Purposes: comms

External: N2YO · Heavens-Above · Gunter

§ Orbital elements

Epoch: 2026-09-21T16:22:01.751808Z

Period
93.06 min
Inclination
53.1540°
Eccentricity
0.0003569
Mean motion
15.47465645 rev/d
Perigee alt
421.7 km
Apogee alt
426.6 km
Semi-major
6,802.3 km
B*
1.5124e-3
RAAN
343.4605°
Arg perigee
329.0343°
Mean anomaly
31.0455°
Rev number
9,967

§ Raw data

STARLINK-326781 62309U 24239J   26264.68196472  .00079245  00000+0  15124-2 0  99942 62309  53.1540 343.4605 0003569 329.0343  31.0455 15.47465645 99678

JSON: /api/v1/satellites/62309 · /tle

For live sub-satellite position, see the globe view (requires WebGL).

§ Visibility from observer

Set your observer location to see the next 7 days of passes ≥ 10°. The values pass through the URL so the page stays shareable.

No JS? Fill the form by hand. The geolocation button needs JavaScript.